Location: Home
(42.5358°N, 72.7383°W)
Time: 05:55:00
(UTC-05:00)

Courier 1B Rocket - Pass Details

Date: 05 December 2021
Orbit: 920 x 1202 km, 28.2° (Epoch: 25 January)

Event Time Altitude Azimuth Distance (km) Brightness Sun altitude
Rises 23:25:49 0° 243° (WSW) 3,641 - -69.7°
Reaches altitude 10° 23:29:06 10° 228° (SW) 2,658 - -69.8°
Maximum altitude 23:33:47 22° 181° (S) 1,918 - -69.9°
Drops below altitude 10° 23:38:22 10° 133° (SE) 2,603 - -70.0°
Sets 23:41:33 0° 118° (ESE) 3,546 - -70.0°
